Vorticity
6 5 6 6 7 7 7 7 7 7 7 8 9 10 11 12 13 13 11 11 12 10 9 8 7 8 9 10 10 10 11 11 12 12 11 11 10 10 11 11 11 11
7 7 7 7 7 7 6 6 6 6 5 5 7 9 9 10 11 13 14 14 14 13 12 10 8 7 7 8 10 9 10 10 10 11 10 10 10 9 8 9 10 10
7 7 7 7 8 8 9 9 7 7 6 4 5 5 6 7 7 9 11 13 14 14 14 13 11 9 6 6 8 8 8 8 8 9 10 10 10 10 8 7 8 8
8 9 9 11 12 12 12 14 13 13 12 10 8 6 6 6 6 6 7 10 12 12 12 13 13 12 9 7 6 7 7 7 6 5 6 6 6 7 8 7 6 6
7 8 9 9 9 8 9 11 12 13 14 15 15 13 10 9 7 5 4 4 8 11 11 11 11 11 10 9 7 6 6 6 6 5 4 4 4 4 4 5 6 5
4 6 9 6 4 5 6 8 10 10 10 12 15 16 16 16 14 12 10 6 4 5 7 9 10 9 9 9 9 7 6 5 5 5 5 4 5 5 5 5 5 5
2 1 4 6 4 3 3 5 8 9 9 8 8 10 12 13 15 15 15 14 12 10 9 8 8 8 8 8 8 8 8 7 6 5 5 5 4 4 4 4 4 5
1 -3 -1 3 4 3 3 4 4 7 11 10 5 1 -2 -1 5 11 13 12 12 13 13 13 12 11 11 10 9 9 9 9 8 7 6 5 5 4 4 4 4 3
-0 -4 -4 2 7 6 6 6 4 4 9 12 11 8 2 -2 1 8 11 10 9 9 8 9 10 11 11 11 11 11 11 11 11 11 10 9 8 7 7 6 6 6
2 -1 -6 -2 5 6 5 7 6 3 2 4 7 10 11 11 9 7 3 3 8 9 7 5 3 4 7 9 9 9 10 11 11 11 11 11 10 9 9 8 8 8
-0 1 -4 -6 0 4 4 3 5 5 4 2 2 3 5 6 7 7 2 -2 0 4 8 10 9 6 6 7 7 6 6 7 9 11 10 10 10 10 10 11 11 11
-1 1 -0 -3 -1 4 3 -0 2 5 5 6 4 1 -2 -4 0 9 10 5 2 -1 -1 2 5 7 9 9 9 7 5 4 5 8 8 7 7 8 10 11 12 12
4 3 3 2 2 4 3 2 3 3 4 7 4 -1 -0 3 5 4 2 3 6 6 8 8 5 4 5 4 7 9 8 8 6 6 7 5 3 5 7 9 10 12
5 4 4 4 5 4 3 3 3 2 2 5 3 -1 2 9 8 -0 -3 1 3 7 14 9 -0 6 12 5 -1 2 6 9 9 9 9 6 4 4 4 5 7 9
3 2 -0 0 3 3 2 3 3 1 -0 1 2 0 0 3 5 4 6 8 4 4 8 0 -8 3 15 8 -1 -1 6 13 14 12 12 8 5 4 4 3 4 6
-1 -3 -6 -5 -2 0 2 3 2 1 0 0 -0 0 2 4 4 6 5 2 0 3 10 14 12 13 15 13 10 8 7 9 12 12 12 10 6 5 5 4 3 4
-1 -2 -3 -3 -2 -0 4 6 7 6 4 3 1 -1 1 1 2 3 3 3 7 8 5 2 3 8 10 8 8 13 14 10 12 16 13 10 8 6 7 8 6 6
1 1 1 -0 -0 3 5 6 8 8 5 5 5 3 0 -1 -0 2 4 6 10 12 11 3 -5 -6 -3 -5 0 15 23 13 7 11 9 3 3 3 3 7 10 11
6 5 5 4 3 4 4 4 4 5 4 4 4 5 4 1 1 2 3 2 -2 -1 8 14 13 7 0 -2 -0 6 21 25 13 7 8 3 0 2 2 1 3 8
10 9 8 7 5 3 2 3 4 4 6 7 7 9 8 5 5 6 7 7 5 5 5 5 18 29 24 19 12 4 16 26 4 -9 5 11 6 8 10 5 -2 -3
10 8 7 5 5 5 4 5 6 7 8 8 8 9 9 9 10 9 9 11 10 13 11 1 2 10 10 15 22 20 19 11 -11 -11 12 20 13 11 12 10 4 -5
12 10 10 9 9 10 10 10 10 10 9 9 8 8 8 9 10 10 11 12 8 8 13 10 2 -4 -9 -8 1 9 15 8 -1 6 16 17 17 16 9 6 6 1
13 12 12 12 12 11 11 11 11 10 11 11 10 10 9 7 7 6 5 7 8 7 9 11 11 10 9 5 0 1 7 6 1 4 7 10 19 21 13 7 5 5
11 11 11 11 11 12 11 11 13 14 16 16 16 16 16 14 15 17 15 13 11 9 8 9 11 11 13 17 16 13 14 12 10 11 10 10 14 18 20 17 10 8
9 10 11 11 12 13 14 14 15 16 16 17 19 18 18 19 18 15 14 13 10 9 11 13 13 13 12 13 15 15 14 13 13 17 16 11 9 14 21 24 21 16
11 11 12 13 13 13 13 13 12 12 12 13 16 16 15 16 13 7 7 11 12 14 16 16 15 16 16 17 23 27 25 21 22 23 20 14 11 10 11 13 15 17
Height
5729 5730 5730 5731 5732 5732 5732 5733 5733 5733 5734 5734 5735 5735 5736 5737 5737 5738 5738 5738 5739 5739 5739 5739 5740 5740 5741 5741 5741 5742 5742 5743 5743 5744 5744 5745 5745 5746 5747 5747 5748 5749
5726 5727 5727 5728 5729 5729 5729 5730 5730 5730 5731 5731 5732 5733 5733 5734 5735 5735 5736 5736 5737 5737 5737 5737 5738 5738 5738 5739 5739 5739 5740 5740 5741 5741 5742 5742 5743 5743 5744 5744 5745 5746
5724 5724 5725 5726 5726 5726 5727 5727 5727 5728 5728 5728 5729 5729 5730 5731 5732 5733 5733 5734 5734 5735 5735 5735 5736 5736 5736 5736 5737 5737 5737 5738 5738 5739 5739 5740 5740 5741 5741 5741 5742 5743
5721 5722 5722 5723 5723 5724 5724 5724 5725 5725 5725 5725 5726 5726 5727 5727 5728 5729 5730 5731 5732 5732 5733 5733 5733 5734 5734 5734 5734 5734 5735 5735 5736 5736 5736 5737 5737 5738 5738 5739 5739 5739
5718 5718 5719 5720 5720 5721 5721 5721 5722 5722 5723 5723 5723 5723 5724 5724 5725 5725 5726 5727 5728 5729 5730 5730 5731 5731 5731 5731 5732 5732 5732 5732 5733 5733 5734 5734 5734 5735 5735 5736 5736 5737
5716 5715 5716 5717 5718 5718 5718 5718 5719 5719 5720 5721 5721 5721 5721 5721 5722 5722 5722 5723 5724 5725 5726 5727 5727 5728 5728 5729 5729 5729 5729 5730 5730 5730 5730 5731 5731 5731 5732 5732 5733 5733
5713 5713 5713 5714 5714 5714 5715 5715 5715 5716 5716 5717 5718 5719 5719 5719 5719 5719 5719 5720 5720 5721 5722 5722 5723 5724 5724 5725 5726 5726 5726 5727 5727 5727 5727 5727 5728 5728 5728 5729 5729 5730
5711 5710 5710 5710 5711 5711 5712 5712 5713 5713 5713 5714 5715 5716 5717 5717 5717 5717 5717 5716 5717 5717 5718 5718 5719 5719 5720 5721 5721 5722 5722 5723 5723 5723 5723 5724 5724 5724 5725 5725 5726 5726
5707 5708 5708 5708 5708 5708 5708 5709 5709 5710 5710 5711 5712 5713 5713 5714 5715 5715 5714 5714 5714 5714 5714 5714 5715 5715 5716 5716 5717 5717 5718 5718 5719 5719 5719 5720 5720 5720 5720 5721 5721 5722
5703 5704 5704 5704 5704 5705 5705 5705 5705 5706 5707 5708 5709 5709 5710 5711 5711 5712 5712 5711 5711 5711 5711 5711 5711 5711 5712 5712 5712 5712 5713 5714 5714 5715 5715 5715 5716 5716 5716 5716 5716 5717
5699 5699 5700 5700 5700 5700 5701 5701 5702 5703 5703 5704 5705 5706 5706 5707 5708 5708 5708 5708 5708 5708 5708 5708 5708 5708 5708 5708 5708 5708 5708 5709 5709 5710 5710 5711 5711 5711 5712 5712 5712 5712
5694 5695 5696 5696 5696 5696 5696 5697 5698 5699 5699 5700 5701 5701 5702 5702 5703 5703 5704 5704 5704 5704 5705 5705 5705 5705 5704 5704 5704 5704 5704 5704 5704 5705 5705 5705 5706 5706 5707 5707 5707 5707
5689 5689 5690 5691 5691 5691 5692 5693 5694 5694 5695 5696 5696 5697 5696 5695 5696 5698 5698 5699 5699 5700 5700 5701 5701 5701 5701 5701 5701 5701 5700 5700 5700 5700 5700 5700 5701 5701 5701 5701 5702 5702
5684 5684 5685 5686 5686 5687 5687 5688 5689 5689 5690 5691 5691 5691 5690 5689 5690 5692 5692 5694 5695 5695 5695 5696 5697 5697 5696 5696 5696 5696 5696 5696 5695 5695 5695 5695 5696 5696 5696 5696 5697 5697
5678 5678 5679 5680 5681 5682 5682 5682 5683 5684 5684 5685 5685 5685 5684 5684 5685 5686 5686 5687 5689 5689 5690 5691 5691 5691 5691 5691 5691 5691 5691 5691 5691 5690 5690 5690 5691 5691 5691 5691 5692 5692
5672 5672 5673 5673 5675 5676 5676 5677 5677 5678 5679 5679 5680 5680 5679 5679 5680 5681 5680 5681 5682 5683 5684 5684 5684 5684 5684 5685 5685 5685 5685 5685 5685 5685 5685 5685 5685 5686 5686 5686 5686 5686
5665 5665 5666 5666 5667 5668 5669 5670 5671 5672 5673 5673 5674 5674 5674 5674 5675 5675 5674 5674 5676 5677 5678 5677 5677 5677 5678 5679 5679 5679 5679 5679 5679 5679 5679 5679 5679 5680 5680 5680 5680 5681
5658 5658 5659 5660 5660 5661 5661 5662 5664 5665 5666 5667 5667 5667 5667 5668 5669 5669 5668 5668 5669 5670 5670 5671 5671 5672 5672 5673 5673 5673 5673 5673 5673 5674 5674 5674 5674 5674 5674 5674 5675 5675
5650 5651 5652 5653 5653 5654 5655 5656 5657 5658 5659 5659 5660 5660 5660 5661 5662 5662 5662 5662 5663 5664 5664 5664 5664 5665 5665 5666 5666 5666 5666 5667 5667 5668 5668 5667 5667 5667 5668 5668 5668 5668
5642 5643 5644 5645 5646 5647 5648 5649 5650 5651 5652 5652 5652 5652 5653 5654 5655 5655 5655 5655 5656 5657 5658 5658 5657 5657 5657 5658 5658 5659 5660 5660 5661 5661 5661 5661 5661 5661 5661 5661 5661 5661
5634 5636 5637 5638 5638 5639 5640 5642 5643 5644 5644 5644 5645 5645 5646 5647 5648 5648 5648 5648 5648 5649 5650 5651 5651 5651 5650 5650 5651 5652 5653 5653 5654 5654 5654 5654 5653 5653 5653 5653 5654 5654
5626 5628 5629 5630 5631 5632 5633 5634 5635 5636 5636 5637 5637 5638 5639 5640 5640 5640 5640 5640 5641 5642 5643 5644 5644 5644 5644 5644 5644 5645 5645 5646 5647 5646 5646 5646 5646 5645 5645 5646 5646 5646
5617 5619 5620 5621 5622 5623 5625 5626 5626 5627 5628 5629 5629 5630 5631 5632 5632 5632 5632 5633 5634 5635 5636 5637 5636 5636 5636 5636 5637 5638 5638 5639 5639 5639 5638 5638 5637 5637 5638 5638 5638 5638
5609 5610 5612 5612 5613 5615 5616 5617 5618 5619 5620 5620 5622 5623 5623 5624 5624 5624 5624 5625 5627 5628 5628 5628 5629 5629 5629 5629 5629 5630 5630 5631 5631 5631 5631 5630 5630 5630 5630 5630 5630 5630
5601 5602 5603 5604 5605 5606 5607 5608 5610 5611 5611 5612 5614 5615 5616 5617 5617 5616 5616 5617 5619 5620 5620 5621 5621 5622 5622 5622 5622 5622 5622 5623 5623 5623 5623 5623 5623 5623 5623 5623 5623 5623
5592 5593 5595 5596 5597 5598 5599 5600 5601 5602 5603 5605 5606 5608 5609 5610 5610 5609 5609 5610 5611 5612 5613 5614 5614 5614 5614 5614 5614 5614 5614 5615 5616 5616 5616 5616 5617 5616 5616 5616 5615 5615